LiveATC.Net - Listen to live air traffic control over the Internet!


ICAO: VCBI  IATA: CMB   Airport: Bandaranaike International Airport
City: Colombo
Country: Sri Lanka   Continent: Asia
VCBI METAR Weather: VCBI 200110Z 11005KT 8000 FEW017 FEW018TCU 25/23 Q1010 NOSIG RMK SW/W
VCBI Flight Activity (FlightAware)

VCBI Director
Feed Status: DOWN
Last heard on: 2019-03-18 11:38:03 (1 days 14 hours 18 minutes ago)
VCBI Director Audio Archives
FacilityFrequency
Colombo Director132.400

NOTICE

Unauthorized use prohibited. See LiveATC.net Terms of Service


Find LiveATC Audio Streams


Airport/ARTCC Code

Frequency Search
(e.g., 124.400, 128.75)
Site-wide search
 


Browse LiveATC Feeds
Top 50 LiveATC Feeds
LiveATC Feed Map
Bad Weather Areas

LiveATC FAQ
Offer LiveATC feed
Contact LiveATC.net
Press Inquiries

LiveATC on iPhone
LiveATC on Android

Windows Phone
Windows 8/10

LiveATC Mobile
(Mobile browser)

ATC Audio Archives
Interesting Recordings

LiveATC Forums


Home Page
About LiveATC.net
Make a Donation
Terms of Use
Privacy Policy

Canadian Air Freqs

AIRMETs/SIGMETs

FAA Airport Status
Nat'l Airspace Status
Arrival Demand Charts


Server Software By:
Icecast.org
Liquidsoap